This demonstration page uses our WeatherBlox Daily Observations layout. Learn more.

Left ArrowRight Arrow

34.02893, -84.19858

Hourly Observations for July 2, 2022

Temp ( °F °C ) Dew Point ( °F °C ) Humidity (%) Winds ( mph kmh ) Pressure ( in mb ) Visibility ( mi km ) Precip ( " mm )
12:53 am 00:53 Clear 72 22.2 70 21.1 94 94 Calm 30.04 1017 10 16 0.00 0.00
1:27 am 01:27 Mostly Cloudy 73 22.8 71 21.7 94 94 Calm 30.03 1017 10 16 0.00 0.00
1:53 am 01:53 Mostly Cloudy 73 22.8 71 21.7 94 94 Calm 30.02 1017 10 16 0.00 0.00
2:07 am 02:07 Partly Cloudy 73 22.8 71 21.7 94 94 Calm 30.01 1016 10 16 0.00 0.00
2:53 am 02:53 Clear 71 21.7 70 21.1 96 96 Calm 29.99 1016 8 13 0.00 0.00
3:53 am 03:53 Mostly Clear 71 21.7 70 21.1 96 96 Calm 30.00 1016 10 16 0.00 0.00
4:08 am 04:08 Mostly Cloudy 71 21.7 70 21.1 96 96 Calm 30.02 1017 10 16 0.00 0.00
4:31 am 04:31 Partly Cloudy 71 21.7 69 20.6 94 94 Calm 30.02 1017 10 16 0.00 0.00
4:53 am 04:53 Mostly Clear 71 21.7 70 21.1 96 96 Calm 30.00 1016 10 16 0.00 0.00
5:12 am 05:12 Mostly Cloudy 71 21.7 69 20.6 94 94 Calm 30.02 1017 10 16 0.00 0.00
5:24 am 05:24 Partly Cloudy 71 21.7 70 21.1 96 96 Calm 30.03 1017 10 16 0.00 0.00
5:53 am 05:53 Mostly Clear 71 21.7 70 21.1 96 96 Calm 30.01 1016 10 16 0.00 0.00
6:08 am 06:08 Mostly Cloudy 71 21.7 70 21.1 96 96 Calm 30.04 1017 10 16 0.00 0.00
6:45 am 06:45 Cloudy 71 21.7 70 21.1 96 96 Calm 30.05 1018 8 13 0.00 0.00
6:53 am 06:53 Mostly Cloudy 71 21.7 70 21.1 96 96 Calm 30.02 1017 8 13 0.00 0.00
7:23 am 07:23 Cloudy with Mist and Fog 70 21.1 70 21.1 100 100 Calm 30.05 1018 2 3 0.00 0.00
7:34 am 07:34 Cloudy with Mist and Fog 71 21.7 70 21.1 96 96 Calm 30.06 1018 1 1 0.00 0.00
7:53 am 07:53 Cloudy with Mist and Fog 71 21.7 70 21.1 96 96 Calm 30.04 1017 2 3 0.00 0.00
8:35 am 08:35 Cloudy with Mist and Fog 73 22.8 71 21.7 94 94 Calm 30.06 1018 1 2 0.00 0.00
8:53 am 08:53 Cloudy with Mist and Fog 74 23.3 71 21.7 91 91 Calm 30.06 1018 6 10 0.00 0.00
9:05 am 09:05 Mostly Cloudy 75 23.9 71 21.7 88 88 Calm 30.07 1018 9 14 0.00 0.00
9:15 am 09:15 Mostly Sunny 76 24.4 71 21.7 85 85 Calm 30.07 1018 10 16 0.00 0.00
9:36 am 09:36 Mostly Cloudy 77 25 71 21.7 82 82 Calm 30.07 1018 10 16 0.00 0.00
9:53 am 09:53 Mostly Cloudy 78 25.6 71 21.7 79 79 Calm 30.05 1018 10 16 0.00 0.00
9:57 am 09:57 Mostly Cloudy 79 26.1 71 21.7 77 77 Calm 30.06 1018 10 16 0.00 0.00
10:53 am 10:53 Mostly Cloudy 81 27.2 71 21.7 72 72 WNW 6 9 30.05 1018 10 16 0.00 0.00
11:15 am 11:15 Mostly Sunny 83 28.3 69 20.6 63 63 NNW 6 9 30.05 1017 10 16 0.00 0.00
11:53 am 11:53 Partly Cloudy 85 29.4 69 20.6 59 59 Calm 30.04 1017 10 16 0.00 0.00
12:53 pm 12:53 Mostly Cloudy 85 29.4 69 20.6 59 59 Calm 30.02 1017 10 16 0.00 0.00
1:53 pm 13:53 Mostly Cloudy 87 30.6 69 20.6 55 55 N 7 11 30.00 1016 10 16 0.00 0.00
2:53 pm 14:53 Sunny 90 32.2 68 20 48 48 VRB 3 6 29.97 1015 10 16 0.00 0.00
3:53 pm 15:53 Sunny 92 33.3 66 18.9 43 43 NW 6 9 29.95 1014 10 16 0.00 0.00
4:53 pm 16:53 Mostly Cloudy 93 33.9 67 19.4 42 42 W 5 7 29.93 1014 10 16 0.00 0.00
5:53 pm 17:53 Cloudy 90 32.2 67 19.4 47 47 VRB 5 7 29.93 1014 10 16 0.00 0.00
6:53 pm 18:53 Cloudy 87 30.6 69 20.6 55 55 W 8 13 29.94 1014 10 16 0.00 0.00
7:01 pm 19:01 Cloudy with Nearby Thunderstorms 86 30 69 20.6 57 57 W 8 13 29.93 1014 10 16 0.00 0.00
7:17 pm 19:17 Cloudy 85 29.4 69 20.6 59 59 WNW 10 17 29.94 1014 10 16 0.00 0.00
7:53 pm 19:53 Mostly Cloudy 82 27.8 67 19.4 60 60 WNW 6 9 29.97 1015 10 16 0.00 0.00
8:53 pm 20:53 Mostly Clear 81 27.2 68 20 65 65 Calm 29.98 1015 10 16 0.00 0.00
9:53 pm 21:53 Mostly Cloudy 80 26.7 69 20.6 69 69 Calm 30.00 1016 10 16 0.00 0.00
10:53 pm 22:53 Mostly Cloudy 77 25 69 20.6 77 77 Calm 30.01 1016 10 16 0.00 0.00
11:53 pm 23:53 Mostly Cloudy 76 24.4 70 21.1 82 82 Calm 30.01 1016 10 16 0.00 0.00
11:59 pm 23:59 Mostly Cloudy with Thunderstorms 77 25 70 21.1 79 79 Calm 30.03 1017 10 16 0.00 0.00

Powered by AerisWeather